No particular awareness of the weather is required.    There are no Weather-warnings


Meteo18 Weather Cam more information Meteo18 Weather Cam


Thunder radar more information blitzortung!


Rain radar more information rain snow radar


Visit our other weather sites:

Template documentation
and downloads

And another site



Weather Underground History page Text

Daily Summary for March 09, 2018 Units:  Metric    English   Both
« Previous Day
Next Day »
Daily Weekly Monthly Yearly Custom
  High: Low: Average:
Temperature: -17.8 °C -14.5 °C -11.6 °C
Dew Point: -17.8 °C -16.3 °C -14.1 °C
Humidity: Humidity % 61 % 74 %
Wind Speed: 0 km/h 0 km/h 4.5 km/h
Wind Gust: 0 km/h - -
Wind:- - South
Pressure: 0 hPa 33992.1 hPa -
Precipitation: 0 mm    
Historical Graphs
 
 
Tabular Data for March 09, 2018
Time Temperature Dew Point Pressure Wind Wind Speed Wind Gust Humidity Rainfall Rate (Hourly)
-17.8 °C -17.8 °C 0 hPa Calm     Humidity % 0 mm
00:05 -14.4 °C -16.3 °C 34130.9 hPa Calm     79 % 0 mm
00:11 -14.4 °C -16.2 °C 34130.9 hPa Calm   2.6 km/h 80 % 0 mm
00:17 -14.5 °C -16.2 °C 34130.9 hPa Calm   5.1 km/h 81 % 0 mm
00:23 -14.2 °C -16.2 °C 34130.9 hPa Calm   2.6 km/h 78 % 0 mm
00:29 -14.2 °C -16.2 °C 34130.9 hPa Calm   2.6 km/h 77 % 0 mm
00:35 -14.1 °C -16.2 °C 34130.9 hPa Calm     77 % 0 mm
00:41 -14.1 °C -16.1 °C 34130.9 hPa Calm     77 % 0 mm
00:47 -14.1 °C -16.1 °C 34120.7 hPa East 2.3 km/h 2.6 km/h 77 % 0 mm
00:53 -14.1 °C -16.2 °C 34120.7 hPa ENE 2.3 km/h 2.6 km/h 77 % 0 mm
00:59 -14.1 °C -16.1 °C 34120.7 hPa East 2.3 km/h 2.6 km/h 77 % 0 mm
01:05 -14.1 °C -16 °C 34120.7 hPa Calm   2.6 km/h 79 % 0 mm
01:11 -14.2 °C -15.9 °C 34120.7 hPa Calm     80 % 0 mm
01:17 -14.2 °C -15.9 °C 34120.7 hPa Calm     81 % 0 mm
01:23 -14.3 °C -15.9 °C 34130.9 hPa WNW 2.3 km/h 2.6 km/h 81 % 0 mm
01:29 -14.3 °C -16 °C 34130.9 hPa Calm   2.6 km/h 81 % 0 mm
01:35 -14.3 °C -16.1 °C 34120.7 hPa Calm     80 % 0 mm
01:41 -14.1 °C -16 °C 34120.7 hPa Calm     79 % 0 mm
01:47 -14.1 °C -15.9 °C 34120.7 hPa Calm   2.6 km/h 79 % 0 mm
01:53 -14 °C -16 °C 34120.7 hPa Calm   2.6 km/h 78 % 0 mm
01:59 -13.9 °C -15.9 °C 34120.7 hPa Calm   2.6 km/h 78 % 0 mm
02:05 -14 °C -16 °C 34120.7 hPa NNE 2.3 km/h 2.6 km/h 78 % 0 mm
02:11 -14.2 °C -16.1 °C 34120.7 hPa NNE 2.3 km/h 2.6 km/h 79 % 0 mm
02:17 -14.2 °C -16 °C 34107.2 hPa Calm     80 % 0 mm
02:23 -14.3 °C -16.1 °C 34107.2 hPa Calm     80 % 0 mm
02:29 -14.3 °C -15.9 °C 34107.2 hPa Calm     81 % 0 mm
02:35 -14.3 °C -16.1 °C 34107.2 hPa Calm     80 % 0 mm
02:41 -14.3 °C -15.9 °C 34120.7 hPa Calm     82 % 0 mm
02:47 -14.4 °C -15.9 °C 34120.7 hPa Calm     82 % 0 mm
02:53 -14.3 °C -15.9 °C 34120.7 hPa Calm     81 % 0 mm
02:59 -14.2 °C -15.9 °C 34107.2 hPa Calm     81 % 0 mm
03:05 -14.1 °C -15.9 °C 34107.2 hPa Calm     80 % 0 mm
03:11 -14.1 °C -15.9 °C 34107.2 hPa Calm     80 % 0 mm
03:17 -14.2 °C -16 °C 34107.2 hPa Calm     80 % 0 mm
03:23 -14.2 °C -15.9 °C 34107.2 hPa Calm     80 % 0 mm
03:29 -14 °C -15.8 °C 34120.7 hPa Calm     80 % 0 mm
03:35 -13.9 °C -15.7 °C 34120.7 hPa Calm     80 % 0 mm
03:41 -13.9 °C -15.7 °C 34120.7 hPa Calm     80 % 0 mm
03:47 -13.9 °C -15.6 °C 34120.7 hPa Calm     81 % 0 mm
03:53 -13.9 °C -15.6 °C 34120.7 hPa Calm     81 % 0 mm
03:59 -13.9 °C -15.6 °C 34120.7 hPa Calm     81 % 0 mm
04:06 -14 °C -15.7 °C 34107.2 hPa Calm     81 % 0 mm
04:12 -14 °C -15.7 °C 34120.7 hPa Calm     81 % 0 mm
04:18 -14 °C -15.7 °C 34107.2 hPa Calm     81 % 0 mm
04:24 -14.1 °C -15.7 °C 34120.7 hPa Calm     82 % 0 mm
04:30 -14.1 °C -15.7 °C 34120.7 hPa Calm     82 % 0 mm
04:36 -14.1 °C -15.7 °C 34120.7 hPa Calm     82 % 0 mm
04:42 -14.2 °C -15.7 °C 34120.7 hPa Calm     83 % 0 mm
04:48 -14.1 °C -15.6 °C 34120.7 hPa Calm     83 % 0 mm
04:54 -14.1 °C -15.6 °C 34120.7 hPa Calm     83 % 0 mm
05:00 -14 °C -15.6 °C 34120.7 hPa Calm     82 % 0 mm
05:06 -14.1 °C -15.7 °C 34120.7 hPa Calm     82 % 0 mm
05:12 -13.9 °C -15.6 °C 34120.7 hPa Calm     82 % 0 mm
05:18 -13.9 °C -15.6 °C 34120.7 hPa Calm     82 % 0 mm
05:24 -13.9 °C -15.4 °C 34120.7 hPa Calm     83 % 0 mm
05:30 -13.8 °C -15.3 °C 34120.7 hPa Calm     83 % 0 mm
05:36 -13.8 °C -15.3 °C 34107.2 hPa Calm     83 % 0 mm
05:42 -13.8 °C -15.3 °C 34107.2 hPa Calm     83 % 0 mm
05:49 -13.9 °C -15.4 °C 34107.2 hPa Calm     83 % 0 mm
05:55 -13.9 °C -15.4 °C 34107.2 hPa Calm     83 % 0 mm
06:01 -13.8 °C -15.3 °C 34107.2 hPa Calm     83 % 0 mm
06:07 -13.8 °C -15.3 °C 34107.2 hPa Calm     83 % 0 mm
06:13 -13.7 °C -15.3 °C 34107.2 hPa Calm     82 % 0 mm
06:19 -13.7 °C -15.3 °C 34107.2 hPa Calm     82 % 0 mm
06:25 -13.7 °C -15.3 °C 34107.2 hPa Calm     82 % 0 mm
06:31 -13.7 °C -15.3 °C 34107.2 hPa Calm     81 % 0 mm
06:37 -13.7 °C -15.3 °C 34107.2 hPa Calm     81 % 0 mm
06:43 -13.7 °C -15.3 °C 34107.2 hPa Calm     82 % 0 mm
06:49 -13.7 °C -15.3 °C 34107.2 hPa Calm     82 % 0 mm
06:55 -13.7 °C -15.2 °C 34107.2 hPa Calm     83 % 0 mm
07:01 -13.7 °C -15.2 °C 34107.2 hPa Calm     83 % 0 mm
07:07 -13.7 °C -15.1 °C 34107.2 hPa Calm     84 % 0 mm
07:13 -13.7 °C -15.1 °C 34107.2 hPa Calm     84 % 0 mm
07:19 -13.7 °C -15.2 °C 34107.2 hPa Calm     83 % 0 mm
07:25 -13.7 °C -15.2 °C 34107.2 hPa Calm     83 % 0 mm
07:31 -13.7 °C -15.2 °C 34097 hPa Calm   2.6 km/h 83 % 0 mm
07:37 -13.7 °C -15.2 °C 34107.2 hPa Calm     83 % 0 mm
07:43 -13.7 °C -15.2 °C 34107.2 hPa Calm   5.1 km/h 83 % 0 mm
07:49 -13.6 °C -15.2 °C 34107.2 hPa Calm   7.7 km/h 82 % 0 mm
07:55 -13.4 °C -15.1 °C 34107.2 hPa SW 2.3 km/h 5.1 km/h 82 % 0 mm
08:01 -13.3 °C -14.9 °C 34107.2 hPa South 5.1 km/h 5.1 km/h 82 % 0 mm
08:07 -13.3 °C -14.9 °C 34107.2 hPa SSE 2.3 km/h 2.6 km/h 82 % 0 mm
08:14 -13.3 °C -14.9 °C 34107.2 hPa Calm   5.1 km/h 82 % 0 mm
08:20 -13.2 °C -14.8 °C 34107.2 hPa SSW 5.1 km/h 5.1 km/h 82 % 0 mm
08:26 -13.2 °C -14.8 °C 34107.2 hPa SSE 2.3 km/h 2.6 km/h 82 % 0 mm
08:32 -13.2 °C -14.9 °C 34107.2 hPa SSW 5.1 km/h 5.1 km/h 81 % 0 mm
08:38 -13.2 °C -14.9 °C 34107.2 hPa SSW 5.1 km/h 5.1 km/h 81 % 0 mm
08:44 -13.1 °C -14.9 °C 34120.7 hPa SSW 2.3 km/h 5.1 km/h 80 % 0 mm
08:50 -13.1 °C -14.9 °C 34120.7 hPa SSW 5.1 km/h 7.7 km/h 79 % 0 mm
08:56 -12.9 °C -14.9 °C 34120.7 hPa SW 2.3 km/h 7.7 km/h 78 % 0 mm
09:02 -12.9 °C -14.9 °C 34120.7 hPa SW 2.3 km/h 5.1 km/h 78 % 0 mm
09:08 -12.8 °C -14.7 °C 34120.7 hPa Calm   5.1 km/h 79 % 0 mm
09:14 -12.8 °C -14.7 °C 34120.7 hPa SSW 2.3 km/h 2.6 km/h 79 % 0 mm
09:20 -12.7 °C -14.5 °C 34120.7 hPa Calm   2.6 km/h 80 % 0 mm
09:26 -12.6 °C -14.6 °C 34120.7 hPa SSW 2.3 km/h 7.7 km/h 78 % 0 mm
09:32 -12.4 °C -14.6 °C 34120.7 hPa SSW 7.6 km/h 10.3 km/h 77 % 0 mm
09:38 -12.3 °C -14.6 °C 34120.7 hPa SSE 5.1 km/h 12.9 km/h 76 % 0 mm
09:44 -12.2 °C -14.4 °C 34120.7 hPa SSE 7.6 km/h 12.9 km/h 76 % 0 mm
09:50 -12.1 °C -14.4 °C 34120.7 hPa SSE 2.3 km/h 10.3 km/h 75 % 0 mm
09:56 -11.9 °C -14.4 °C 34120.7 hPa SSE 7.6 km/h 15.6 km/h 74 % 0 mm
10:02 -11.9 °C -14.3 °C 34120.7 hPa South 5.1 km/h 18.2 km/h 74 % 0 mm
10:08 -11.8 °C -14.2 °C 34120.7 hPa SSE 2.3 km/h 10.3 km/h 75 % 0 mm
10:14 -11.6 °C -14.2 °C 34120.7 hPa SSE 2.3 km/h 12.9 km/h 73 % 0 mm
10:20 -11.5 °C -14 °C 34120.7 hPa South 5.1 km/h 10.3 km/h 74 % 0 mm
10:26 -11.4 °C -14.2 °C 34120.7 hPa SSW 12.7 km/h 15.6 km/h 71 % 0 mm
10:32 -11.3 °C -14 °C 34120.7 hPa SSW 10.3 km/h 20.8 km/h 72 % 0 mm
10:38 -11.2 °C -14.1 °C 34120.7 hPa SSE 10.3 km/h 15.6 km/h 71 % 0 mm
10:44 -11.2 °C -14.1 °C 34120.7 hPa SSE 23.3 km/h 23.3 km/h 70 % 0 mm
10:50 -11.1 °C -14.2 °C 34120.7 hPa SSE 15.6 km/h 20.8 km/h 69 % 0 mm
10:56 -11.1 °C -14.1 °C 34120.7 hPa SE 7.6 km/h 18.2 km/h 69 % 0 mm
11:02 -10.9 °C -13.8 °C 34120.7 hPa South 5.1 km/h 15.6 km/h 70 % 0 mm
11:08 -10.7 °C -13.8 °C 34120.7 hPa SSE 5.1 km/h 10.3 km/h 69 % 0 mm
11:14 -10.7 °C -14.2 °C 34120.7 hPa SE 7.6 km/h 20.8 km/h 66 % 0 mm
11:20 -10.8 °C -14.2 °C 34120.7 hPa SSW 5.1 km/h 23.3 km/h 67 % 0 mm
11:26 -10.8 °C -13.8 °C 34120.7 hPa SSE 7.6 km/h 15.6 km/h 69 % 0 mm
11:32 -10.7 °C -13.7 °C 34120.7 hPa SE 5.1 km/h 15.6 km/h 70 % 0 mm
11:38 -10.6 °C -13.6 °C 34120.7 hPa SSE 5.1 km/h 10.3 km/h 70 % 0 mm
11:44 -10.6 °C -14 °C 34120.7 hPa SSE 10.3 km/h 18.2 km/h 66 % 0 mm
11:50 -10.5 °C -14.1 °C 34107.2 hPa SSW 17.9 km/h 20.8 km/h 65 % 0 mm
11:56 -10.4 °C -13.6 °C 34107.2 hPa South 5.1 km/h 18.2 km/h 68 % 0 mm
12:02 -10.3 °C -14.2 °C 34107.2 hPa South 12.7 km/h 20.8 km/h 62 % 0 mm
12:08 -10.2 °C -13.8 °C 34107.2 hPa South 10.3 km/h 18.2 km/h 65 % 0 mm
12:14 -10.1 °C -13.8 °C 34097 hPa SE 5.1 km/h 20.8 km/h 64 % 0 mm
12:20 -10.1 °C -13.8 °C 34097 hPa SE 17.9 km/h 18.2 km/h 64 % 0 mm
12:26 -10.1 °C -13.7 °C 34097 hPa SSE 5.1 km/h 23.3 km/h 65 % 0 mm
12:32 -9.9 °C -13.6 °C 34097 hPa SE 12.7 km/h 28.5 km/h 64 % 0 mm
12:38 -9.9 °C -13.7 °C 34097 hPa South 7.6 km/h 20.8 km/h 63 % 0 mm
12:44 -9.9 °C -13.7 °C 34097 hPa South 12.7 km/h 20.8 km/h 64 % 0 mm
12:50 -9.9 °C -13.6 °C 34097 hPa SE 7.6 km/h 18.2 km/h 65 % 0 mm
12:56 -9.9 °C -13.4 °C 34097 hPa South 7.6 km/h 15.6 km/h 66 % 0 mm
13:02 -9.9 °C -13.4 °C 34086.9 hPa SSE 7.6 km/h 18.2 km/h 66 % 0 mm
13:08 -9.8 °C -13.5 °C 34086.9 hPa ESE 7.6 km/h 18.2 km/h 64 % 0 mm
13:14 -9.8 °C -13.5 °C 34086.9 hPa South 10.3 km/h 20.8 km/h 64 % 0 mm
13:20 -9.7 °C -13.2 °C 34073.3 hPa SSE 7.6 km/h 10.3 km/h 66 % 0 mm
13:26 -9.6 °C -13 °C 34073.3 hPa South 10.3 km/h 12.9 km/h 67 % 0 mm
13:32 -9.6 °C -13.3 °C 34073.3 hPa SE 10.3 km/h 12.9 km/h 64 % 0 mm
13:38 -9.6 °C -13.2 °C 34063.2 hPa SSE 7.6 km/h 20.8 km/h 65 % 0 mm
13:44 -9.5 °C -13.3 °C 34063.2 hPa South 10.3 km/h 18.2 km/h 64 % 0 mm
13:50 -9.4 °C -13.3 °C 34063.2 hPa SSE 7.6 km/h 20.8 km/h 63 % 0 mm
13:56 -9.4 °C -13.3 °C 34049.6 hPa SE 12.7 km/h 28.5 km/h 63 % 0 mm
14:02 -9.3 °C -13.1 °C 34049.6 hPa East 7.6 km/h 18.2 km/h 64 % 0 mm
14:08 -9.3 °C -13.3 °C 34049.6 hPa SE 7.6 km/h 20.8 km/h 62 % 0 mm
14:14 -9.3 °C -13.2 °C 34049.6 hPa ESE 15.6 km/h 20.8 km/h 63 % 0 mm
14:20 -9.3 °C -13.3 °C 34049.6 hPa SSE 12.7 km/h 20.8 km/h 62 % 0 mm
14:26 -9.3 °C -12.9 °C 34049.6 hPa SE 10.3 km/h 15.6 km/h 65 % 0 mm
14:32 -9.3 °C -13.2 °C 34049.6 hPa SSE 15.6 km/h 20.8 km/h 63 % 0 mm
14:38 -9.3 °C -13.1 °C 34049.6 hPa SE 5.1 km/h 23.3 km/h 64 % 0 mm
14:44 -9.2 °C -13 °C 34039.5 hPa SE 15.6 km/h 18.2 km/h 64 % 0 mm
14:50 -9.1 °C -13 °C 34039.5 hPa SSE 15.6 km/h 15.6 km/h 63 % 0 mm
14:56 -9 °C -12.9 °C 34039.5 hPa SE 7.6 km/h 15.6 km/h 63 % 0 mm
15:02 -8.8 °C -12.7 °C 34029.3 hPa SSE 10.3 km/h 18.2 km/h 63 % 0 mm
15:08 -8.8 °C -12.9 °C 34029.3 hPa SSE 10.3 km/h 23.3 km/h 61 % 0 mm
15:14 -8.7 °C -12.8 °C 34029.3 hPa SE 12.7 km/h 20.8 km/h 62 % 0 mm
15:20 -8.7 °C -12.8 °C 34029.3 hPa SSW 5.1 km/h 18.2 km/h 62 % 0 mm
15:26 -8.5 °C -12.3 °C 34029.3 hPa SE 7.6 km/h 20.8 km/h 64 % 0 mm
15:32 -8.5 °C -12.4 °C 34029.3 hPa SW 7.6 km/h 18.2 km/h 63 % 0 mm
15:38 -8.5 °C -12.6 °C 34029.3 hPa SSE 10.3 km/h 12.9 km/h 62 % 0 mm
15:44 -8.5 °C -12.4 °C 34015.8 hPa SSW 7.6 km/h 25.9 km/h 63 % 0 mm
15:50 -8.5 °C -12.7 °C 34015.8 hPa SSE 10.3 km/h 28.5 km/h 61 % 0 mm
15:56 -8.5 °C -12.6 °C 34015.8 hPa South 15.6 km/h 25.9 km/h 62 % 0 mm
16:03 -8.6 °C -12.8 °C 34029.3 hPa SSW 20.9 km/h 31.1 km/h 61 % 0 mm
16:09 -8.6 °C -12.6 °C 34029.3 hPa SW 12.7 km/h 18.2 km/h 62 % 0 mm
16:15 -8.6 °C -12.6 °C 34029.3 hPa SSW 12.7 km/h 20.8 km/h 63 % 0 mm
16:21 -8.7 °C -12.3 °C 34015.8 hPa South 12.7 km/h 20.8 km/h 65 % 0 mm
16:27 -8.7 °C -12.6 °C 34015.8 hPa SSW 17.9 km/h 25.9 km/h 63 % 0 mm
16:33 -8.7 °C -12.3 °C 34015.8 hPa SSW 12.7 km/h 12.9 km/h 66 % 0 mm
16:39 -8.8 °C -12.4 °C 34015.8 hPa SW 10.3 km/h 15.6 km/h 66 % 0 mm
16:45 -8.9 °C -12.3 °C 34015.8 hPa SSW 5.1 km/h 15.6 km/h 67 % 0 mm
16:51 -8.9 °C -12.3 °C 34015.8 hPa SSW 15.6 km/h 15.6 km/h 67 % 0 mm
16:57 -8.9 °C -12.2 °C 34015.8 hPa SW 12.7 km/h 18.2 km/h 68 % 0 mm
17:03 -9 °C -12.2 °C 34015.8 hPa SSW 12.7 km/h 20.8 km/h 69 % 0 mm
17:09 -9.1 °C -12.2 °C 34015.8 hPa SW 12.7 km/h 18.2 km/h 69 % 0 mm
17:15 -9 °C -12.3 °C 34015.8 hPa SW 17.9 km/h 23.3 km/h 68 % 0 mm
17:21 -9 °C -12.4 °C 34015.8 hPa SW 12.7 km/h 25.9 km/h 67 % 0 mm
17:27 -9.1 °C -12.4 °C 34015.8 hPa SW 12.7 km/h 20.8 km/h 67 % 0 mm
17:33 -9.1 °C -12.5 °C 34015.8 hPa SSW 12.7 km/h 20.8 km/h 67 % 0 mm
17:39 -9.2 °C -12.4 °C 34015.8 hPa SSW 10.3 km/h 12.9 km/h 69 % 0 mm
17:45 -9.3 °C -12.3 °C 34015.8 hPa SW 10.3 km/h 12.9 km/h 70 % 0 mm
17:51 -9.4 °C -12.5 °C 34015.8 hPa WSW 10.3 km/h 10.3 km/h 69 % 0 mm
17:57 -9.3 °C -12.6 °C 34015.8 hPa SSW 5.1 km/h 10.3 km/h 68 % 0 mm
18:03 -9.3 °C -12.6 °C 34015.8 hPa SW 5.1 km/h 10.3 km/h 68 % 0 mm
18:09 -9.3 °C -12.6 °C 34015.8 hPa SSW 5.1 km/h 10.3 km/h 68 % 0 mm
18:15 -9.3 °C -12.6 °C 34015.8 hPa WSW 7.6 km/h 7.7 km/h 68 % 0 mm
18:21 -9.3 °C -12.7 °C 34015.8 hPa SSW 2.3 km/h 5.1 km/h 67 % 0 mm
18:27 -9.3 °C -12.7 °C 34015.8 hPa SW 2.3 km/h 5.1 km/h 67 % 0 mm
18:33 -9.4 °C -12.5 °C 34015.8 hPa SSW 2.3 km/h 5.1 km/h 69 % 0 mm
18:39 -9.6 °C -12.6 °C 34015.8 hPa SSW 2.3 km/h 10.3 km/h 70 % 0 mm
18:45 -9.7 °C -12.6 °C 34015.8 hPa Calm   5.1 km/h 71 % 0 mm
18:51 -9.8 °C -12.6 °C 34015.8 hPa Calm     72 % 0 mm
18:57 -9.9 °C -12.6 °C 34015.8 hPa SW 2.3 km/h 2.6 km/h 73 % 0 mm
19:03 -9.9 °C -12.6 °C 34015.8 hPa Calm     73 % 0 mm
19:09 -9.8 °C -12.6 °C 34015.8 hPa Calm     72 % 0 mm
19:15 -9.9 °C -12.7 °C 34015.8 hPa Calm     72 % 0 mm
19:21 -9.9 °C -12.6 °C 34015.8 hPa Calm     73 % 0 mm
19:27 -9.9 °C -12.6 °C 34005.6 hPa Calm     73 % 0 mm
19:33 -9.9 °C -12.6 °C 34005.6 hPa Calm     73 % 0 mm
19:39 -9.9 °C -12.6 °C 34005.6 hPa Calm   2.6 km/h 73 % 0 mm
19:45 -9.9 °C -12.6 °C 34005.6 hPa Calm   2.6 km/h 73 % 0 mm
19:51 -9.9 °C -12.7 °C 34005.6 hPa SW 2.3 km/h 2.6 km/h 72 % 0 mm
19:57 -9.9 °C -12.7 °C 34005.6 hPa Calm     72 % 0 mm
20:03 -10 °C -12.7 °C 34005.6 hPa Calm     73 % 0 mm
20:09 -10.1 °C -12.7 °C 34005.6 hPa Calm   2.6 km/h 74 % 0 mm
20:15 -10.1 °C -12.6 °C 34005.6 hPa Calm     74 % 0 mm
20:21 -10.1 °C -12.8 °C 34005.6 hPa Calm   5.1 km/h 72 % 0 mm
20:27 -10 °C -12.8 °C 34005.6 hPa Calm     72 % 0 mm
20:33 -10.1 °C -12.8 °C 34005.6 hPa Calm     72 % 0 mm
20:39 -10.2 °C -12.7 °C 34005.6 hPa Calm     74 % 0 mm
20:45 -10.2 °C -12.7 °C 34005.6 hPa SSE 2.3 km/h 12.9 km/h 74 % 0 mm
20:51 -10.1 °C -12.8 °C 34005.6 hPa Calm   2.6 km/h 73 % 0 mm
20:57 -10.2 °C -12.7 °C 34005.6 hPa Calm   2.6 km/h 74 % 0 mm
21:03 -10.3 °C -12.7 °C 34005.6 hPa Calm   2.6 km/h 75 % 0 mm
21:09 -10.4 °C -12.7 °C 34005.6 hPa Calm     76 % 0 mm
21:15 -10.5 °C -12.8 °C 34005.6 hPa Calm     76 % 0 mm
21:21 -10.6 °C -12.8 °C 34005.6 hPa Calm   2.6 km/h 77 % 0 mm
21:27 -10.6 °C -12.8 °C 34005.6 hPa Calm   10.3 km/h 77 % 0 mm
21:33 -10.7 °C -12.7 °C 34005.6 hPa SW 7.6 km/h 7.7 km/h 78 % 0 mm
21:39 -10.6 °C -12.8 °C 34005.6 hPa SSE 2.3 km/h 12.9 km/h 77 % 0 mm
21:45 -10.4 °C -12.8 °C 34005.6 hPa South 7.6 km/h 20.8 km/h 75 % 0 mm
21:51 -10.4 °C -12.9 °C 34005.6 hPa SSW 5.1 km/h 15.6 km/h 74 % 0 mm
21:57 -10.4 °C -13 °C 34005.6 hPa SSE 5.1 km/h 18.2 km/h 73 % 0 mm
22:03 -10.3 °C -13.1 °C 34005.6 hPa South 12.7 km/h 18.2 km/h 72 % 0 mm
22:09 -10.3 °C -13 °C 34005.6 hPa SE 5.1 km/h 18.2 km/h 72 % 0 mm
22:15 -10.3 °C -13.2 °C 34005.6 hPa SE 7.6 km/h 20.8 km/h 71 % 0 mm
22:21 -10.3 °C -13.2 °C 34005.6 hPa SSE 10.3 km/h 12.9 km/h 71 % 0 mm
22:27 -10.4 °C -13.1 °C 34005.6 hPa South 2.3 km/h 12.9 km/h 72 % 0 mm
22:33 -10.4 °C -13.2 °C 34005.6 hPa South 7.6 km/h 12.9 km/h 72 % 0 mm
22:39 -10.5 °C -13.2 °C 34005.6 hPa SSE 5.1 km/h 18.2 km/h 72 % 0 mm
22:45 -10.6 °C -13.2 °C 34005.6 hPa SE 15.6 km/h 20.8 km/h 73 % 0 mm
22:51 -10.6 °C -13.2 °C 34005.6 hPa South 5.1 km/h 12.9 km/h 73 % 0 mm
22:58 -10.7 °C -13.3 °C 34005.6 hPa SSW 7.6 km/h 15.6 km/h 73 % 0 mm
23:04 -10.7 °C -13.2 °C 34005.6 hPa SE 12.7 km/h 12.9 km/h 74 % 0 mm
23:10 -10.7 °C -13.2 °C 34005.6 hPa SSW 2.3 km/h 10.3 km/h 74 % 0 mm
23:16 -10.7 °C -13.2 °C 34005.6 hPa South 5.1 km/h 12.9 km/h 74 % 0 mm
23:22 -10.8 °C -13.2 °C 34005.6 hPa South 7.6 km/h 10.3 km/h 75 % 0 mm
23:28 -10.8 °C -13.2 °C 34005.6 hPa SSE 5.1 km/h 7.7 km/h 75 % 0 mm
23:34 -10.9 °C -13.3 °C 34005.6 hPa SW 5.1 km/h 7.7 km/h 75 % 0 mm
23:40 -11 °C -13.3 °C 34005.6 hPa South 2.3 km/h 5.1 km/h 76 % 0 mm
23:46 -11 °C -13.3 °C 34005.6 hPa SSE 2.3 km/h 5.1 km/h 76 % 0 mm
23:52 -11 °C -13.3 °C 34005.6 hPa SSW 2.3 km/h 5.1 km/h 76 % 0 mm
23:58 -11 °C -13.3 °C 33992.1 hPa Calm   5.1 km/h 76 % 0 mm
Meteo18
Compliments of Weather Underground - 4 mb

Script developed by  Jim McMurry - jmcmurry@mwt.net Adapted for the template by  Wim van der Kuil - Leuven-Template.eu

You find our weather info also at:

European Weather Network

Weather Underground

Equipment we use:

Weather-station
Davis Vue

Weather-program
Meteobridge

Weather-server
Raspberry PI 2 B+

Provider
1 and 1

Davis Vue

Meteobridge

Raspberry PI 2 B+

1 and 1